Location: Cisewo
(53.3833°N, 14.9000°E)
Time: 12:50:01
(UTC+00:00)

USA 215 - Pass Details

Date: 18 April 2021
Orbit: 1101 x 1107 km, 123.0° (Epoch: 14 May)

Event Time Altitude Azimuth Distance (km) Brightness Sun altitude
Exits shadow 20:45:37 25° 179° (S) 2,067 4.2 -19.5°
Maximum altitude 20:48:37 37° 225° (SW) 1,654 4.1 -19.7°
Drops below altitude 10° 20:54:36 10° 291° (WNW) 2,965 6.3 -20.2°
Sets 20:57:20 0° 300° (WNW) 3,926 7.2 -20.4°
